[[{"header":{"parameterUnit":"m.s-1","parameterCategory":2,"la1":30.2991,"la2":30.254,"lo1":-89.0895,"lo2":-89.0444,"dy":0.0017,"dx":0.0017,"nx":28,"ny":28,"refTime":"2023-11-04T21:00:00:Z","depth":"0","parameterNumber":2,"parameterNumberName":"U-component_of_CURRENTS"},"data":[0,0,0,0,0,0,0,0,0,0,0,0,0,0,0,0,0,0,0,0,0,0,0,0,0,0,0,0,0,0,0,0,0,0,0,0,0,0,0,0,0,0,0,0,0,0,0,0,0,0,0,0,0,0,0,0,0,0,0.3172,0.3172,0,0.316,0.3159,0.3159,0.3147,0.3148,0.3148,0.3148,0.3107,0.3106,0.3104,0,0,0,0,0,0,0,0,0,0,0,0,0,0.3158,0.3158,0.3172,0.3172,0.3172,0.316,0.3159,0.3159,0.3147,0.3148,0.3148,0.3148,0.3107,0.3106,0.3104,0,0,0,0,0,0,0,0,0,0,0,0,0,0.3153,0.3158,0.3172,0.3168,0.3168,0.316,0.3159,0.3158,0.3147,0.3148,0.3148,0.3148,0.3108,0.3106,0.3104,0.3085,0,0,0.3098,0.3097,0,0,0,0,0,0,0,0,0.3153,0.3153,0.3168,0.3168,0.3168,0.3159,0.3139,0.3134,0.3147,0.3151,0.3148,0.3149,0.3124,0.3121,0.3112,0.3083,0.3082,0.3098,0.3097,0.3096,0.3095,0,0,0,0,0,0,0,0.3153,0.3153,0.3163,0.3169,0.3169,0.3158,0.3157,0.3138,0.3132,0.3151,0.3151,0.3156,0.3123,0.3114,0.3111,0.3081,0.3098,0.3096,0.3095,0.3094,0.3077,0.3077,0,0,0,0,0,0,0.3164,0.3154,0.3164,0.3163,0.3166,0.3158,0.3157,0.3158,0.3133,0.3131,0.3155,0.3155,0.3118,0.3114,0.311,0.3127,0.3096,0.3094,0.3093,0.3076,0.3077,0.3077,0,0,0,0,0,0,0.3164,0.3165,0.3164,0.3161,0.3161,0.3159,0.3159,0.3158,0.3157,0.3138,0.3134,0.3157,0.3118,0.3113,0.3108,0.3124,0.3093,0.3091,0.3075,0.3076,0.3077,0.3136,0,0,0,0,0,0,0.3163,0.3165,0.3165,0.3162,0.3162,0.3166,0.316,0.3158,0.3161,0.316,0.3138,0.3134,0.3117,0.3111,0.3106,0.3121,0.309,0.3074,0.3076,0.3077,0.3133,0.3139,0.3144,0,0,0,0,0,0.3163,0.3157,0.3165,0.3167,0.3164,0.3167,0.3165,0.3162,0.3161,0.3161,0.3153,0.3135,0.3116,0.311,0.3104,0.3119,0.3074,0.3075,0.3077,0.3131,0.3138,0.3144,0,0,0,0,0,0,0.3135,0.3156,0.3164,0.3162,0.3172,0.3167,0.3162,0.3166,0.3159,0.3157,0.314,0.3136,0.3141,0.3119,0.3113,0.3118,0.3093,0.3093,0.3136,0.3142,0.3148,0.3164,0.3088,0,0,0,0,0,0.3136,0.3143,0.3161,0.3156,0.3163,0.3166,0.3166,0.3168,0.3165,0.3162,0.3154,0.3143,0.314,0.3134,0.3124,0.312,0.3134,0.3126,0.3132,0.3136,0.3146,0.3171,0.318,0.3083,0.3083,0.3083,0,0,0.312,0.3134,0.3136,0.3152,0.3154,0.3173,0.3165,0.3167,0.3183,0.3157,0.3167,0.316,0.3144,0.3149,0.3148,0.3133,0.3179,0.3138,0.3143,0.3149,0.3173,0.3183,0.3191,0.3084,0.3084,0.3083,0,0,0.3105,0.311,0.3123,0.3141,0.3161,0.3167,0.3174,0.3184,0.3187,0.3198,0.3191,0.3198,0.3183,0.3185,0.3181,0.3207,0.3209,0.32,0.3237,0.3261,0.327,0.3277,0.3343,0.3356,0.32,0.32,0.32,0,0.3093,0.3112,0.3123,0.3149,0.3166,0.3172,0.3194,0.3198,0.3207,0.3215,0.3208,0.3213,0.3203,0.3218,0.3237,0.322,0.3248,0.3214,0.327,0.3277,0.3284,0.3349,0.3363,0.3203,0.3203,0.3202,0.3202,0,0.3105,0.3121,0.3126,0.317,0.3186,0.32,0.3224,0.3238,0.3245,0.3253,0.327,0.3262,0.3262,0.3268,0.3264,0.3304,0.3316,0.3278,0.3257,0.3297,0.3364,0.3377,0.3207,0.3206,0.3205,0.3205,0,0,0.3076,0.3129,0.3131,0.3157,0.3203,0.3213,0.3247,0.3277,0.3299,0.3304,0.3331,0.3339,0.3329,0.3326,0.3317,0.335,0.3439,0.3343,0.3343,0.3416,0.3534,0.358,0.3599,0.341,0.3412,0.3413,0.3575,0,0.3087,0.3134,0.3161,0.3199,0.3225,0.3256,0.3284,0.3311,0.3332,0.3357,0.3355,0.3374,0.3349,0.336,0.3382,0.3423,0.347,0.3402,0.3477,0.348,0.3521,0.3613,0.3425,0.3555,0.3588,0.359,0.3591,0,0.3097,0.313,0.3172,0.3222,0.3236,0.326,0.3312,0.3339,0.3379,0.3398,0.3412,0.3413,0.3458,0.3427,0.3513,0.3472,0.3513,0.3547,0.3552,0.3581,0.3549,0.3511,0.3578,0.3415,0.3611,0.3609,0.3608,0,0.3074,0.3133,0.3163,0.3186,0.3246,0.3268,0.3296,0.3346,0.3369,0.3427,0.3455,0.3484,0.3511,0.3553,0.3618,0.3574,0.3733,0.3666,0.3753,0.3757,0.3605,0.3594,0.3524,0.3739,0.3739,0.3738,0.3738,0,0.3074,0.3096,0.3153,0.3171,0.32,0.3252,0.3284,0.3327,0.3382,0.3423,0.3459,0.3509,0.3546,0.3626,0.3664,0.3775,0.3764,0.3799,0.3807,0.3626,0.3615,0.3472,0.344,0.3744,0.3743,0.3742,0.3741,0,0.3032,0.3076,0.311,0.3172,0.3186,0.3203,0.3262,0.3295,0.3361,0.3422,0.3447,0.3546,0.3678,0.3739,0.385,0.3851,0.3835,0.398,0.3798,0.3784,0.3697,0.3677,0.3594,0.3495,0.4099,0.4102,0.4103,0,0.3008,0.3025,0.3087,0.3108,0.3132,0.3167,0.3196,0.3265,0.3307,0.3453,0.3483,0.364,0.3727,0.3924,0.3986,0.4094,0.3927,0.3981,0.3855,0.3708,0.369,0.3543,0.3452,0.3687,0.3685,0.3684,0.3682,0,0.2961,0.2989,0.3024,0.3059,0.3091,0.3124,0.3174,0.3196,0.3302,0.3373,0.3499,0.3591,0.3801,0.3842,0.4008,0.4031,0.3765,0.3961,0.3811,0.3394,0.3221,0.3122,0.3603,0.367,0.3671,0.3672,0.3673,0.3673,0.2924,0.2927,0.2974,0.3,0.3041,0.3072,0.3054,0.3136,0.3189,0.3265,0.3436,0.352,0.3637,0.3847,0.3861,0.3725,0.3763,0.3569,0.3576,0.3453,0.3285,0.3798,0.3871,0.3873,0.3875,0.3877,0.3879,0,0.2855,0.2878,0.2912,0.2933,0.2941,0.2991,0.3026,0.2992,0.3016,0.3166,0.3254,0.3337,0.3372,0.3422,0.3412,0.3314,0.3111,0.3196,0.2861,0.2807,0.3242,0.3146,0.3059,0.3059,0.3059,0.3059,0.306,0.306,0.2824,0.2824,0.2837,0.2818,0.2834,0.2781,0.2773,0.2757,0.2811,0.2836,0.2871,0.2981,0.3066,0.3091,0.2946,0.2875,0.2628,0.2548,0.2574,0.2785,0.2814,0.2842,0.2735,0.2563,0.2563,0.1919,0.1915,0.1911]},{"header":{"parameterUnit":"m.s-1","parameterCategory":2,"la1":30.2991,"la2":30.254,"lo1":-89.0895,"lo2":-89.0444,"dy":0.0017,"dx":0.0017,"nx":28,"ny":28,"refTime":"2023-11-04T21:00:00:Z","depth":"0","parameterNumber":3,"parameterNumberName":"V-component_of_CURRENTS"},"data":[0,0,0,0,0,0,0,0,0,0,0,0,0,0,0,0,0,0,0,0,0,0,0,0,0,0,0,0,0,0,0,0,0,0,0,0,0,0,0,0,0,0,0,0,0,0,0,0,0,0,0,0,0,0,0,0,0,0,-0.0766,-0.0766,0,-0.0751,-0.0751,-0.0751,-0.0738,-0.0737,-0.0737,-0.0737,-0.0749,-0.0749,-0.075,0,0,0,0,0,0,0,0,0,0,0,0,0,-0.0735,-0.0736,-0.0766,-0.0766,-0.0766,-0.0751,-0.0751,-0.0751,-0.0738,-0.0737,-0.0737,-0.0737,-0.0749,-0.0749,-0.075,0,0,0,0,0,0,0,0,0,0,0,0,0,-0.0737,-0.0736,-0.0766,-0.0758,-0.0757,-0.0751,-0.0751,-0.0751,-0.0738,-0.0737,-0.0737,-0.0737,-0.0748,-0.0749,-0.075,-0.0758,0,0,-0.0752,-0.0752,0,0,0,0,0,0,0,0,-0.0737,-0.0738,-0.0759,-0.0758,-0.0757,-0.0746,-0.0744,-0.0755,-0.0738,-0.0745,-0.0737,-0.0737,-0.0751,-0.0751,-0.0748,-0.0758,-0.0759,-0.0752,-0.0752,-0.0752,-0.0753,0,0,0,0,0,0,0,-0.0737,-0.0738,-0.076,-0.0759,-0.0758,-0.0738,-0.0739,-0.0746,-0.0749,-0.0744,-0.0743,-0.0742,-0.075,-0.0747,-0.0748,-0.0759,-0.0752,-0.0752,-0.0753,-0.0753,-0.0826,-0.0827,0,0,0,0,0,0,-0.0742,-0.0739,-0.076,-0.076,-0.0747,-0.0739,-0.074,-0.075,-0.0749,-0.0748,-0.0742,-0.0741,-0.0746,-0.0748,-0.0749,-0.0769,-0.0752,-0.0753,-0.0753,-0.0824,-0.0826,-0.0828,0,0,0,0,0,0,-0.0742,-0.0745,-0.0761,-0.0748,-0.0749,-0.074,-0.0752,-0.075,-0.0747,-0.0747,-0.0747,-0.0742,-0.0746,-0.0748,-0.0765,-0.0769,-0.0753,-0.0754,-0.0822,-0.0825,-0.0827,-0.0802,0,0,0,0,0,0,-0.0741,-0.0745,-0.0752,-0.0749,-0.075,-0.0754,-0.0752,-0.075,-0.0747,-0.0746,-0.0747,-0.0747,-0.0746,-0.0764,-0.0766,-0.0769,-0.0754,-0.082,-0.0823,-0.0826,-0.0801,-0.0803,-0.0805,0,0,0,0,0,-0.074,-0.0737,-0.0753,-0.0755,-0.0761,-0.0754,-0.0753,-0.0745,-0.0747,-0.0743,-0.0755,-0.0747,-0.0784,-0.0766,-0.0767,-0.0771,-0.0819,-0.0822,-0.0826,-0.08,-0.0803,-0.0805,0,0,0,0,0,0,-0.0706,-0.0736,-0.0753,-0.0755,-0.0759,-0.0752,-0.0742,-0.0748,-0.0753,-0.0752,-0.0759,-0.0761,-0.0779,-0.0789,-0.0768,-0.0807,-0.0804,-0.0808,-0.0784,-0.0786,-0.0788,-0.0751,-0.0755,0,0,0,0,0,-0.0711,-0.0727,-0.0745,-0.0743,-0.0748,-0.0751,-0.0748,-0.0747,-0.0751,-0.0752,-0.0758,-0.0775,-0.0795,-0.0801,-0.0815,-0.083,-0.0813,-0.0841,-0.0843,-0.0844,-0.0819,-0.0812,-0.0809,-0.0839,-0.0839,-0.0839,0,0,-0.0691,-0.0713,-0.0717,-0.0739,-0.074,-0.0735,-0.0748,-0.0739,-0.0733,-0.0754,-0.075,-0.0778,-0.0803,-0.082,-0.083,-0.0826,-0.0829,-0.0849,-0.0849,-0.0822,-0.0815,-0.0812,-0.0808,-0.0841,-0.0841,-0.0841,0,0,-0.0649,-0.0686,-0.0683,-0.0695,-0.0708,-0.0715,-0.0717,-0.0723,-0.0726,-0.0735,-0.0757,-0.0787,-0.0807,-0.0826,-0.0839,-0.0866,-0.0841,-0.0883,-0.0855,-0.0849,-0.0845,-0.0842,-0.0811,-0.0805,-0.0883,-0.0882,-0.0882,0,-0.0623,-0.0632,-0.0674,-0.0673,-0.0673,-0.0708,-0.0691,-0.0702,-0.0713,-0.0713,-0.073,-0.0771,-0.0804,-0.082,-0.084,-0.0865,-0.0847,-0.0836,-0.0847,-0.0843,-0.0839,-0.0809,-0.0803,-0.0882,-0.0882,-0.0882,-0.0882,0,-0.0579,-0.059,-0.0584,-0.0608,-0.0615,-0.0606,-0.0635,-0.0644,-0.0663,-0.0673,-0.0693,-0.0742,-0.076,-0.0796,-0.0825,-0.0831,-0.0821,-0.0847,-0.0826,-0.0834,-0.0803,-0.0796,-0.0881,-0.0881,-0.0881,-0.0881,0,0,-0.0504,-0.0547,-0.0543,-0.0546,-0.0583,-0.0576,-0.0585,-0.0592,-0.0581,-0.0619,-0.0601,-0.0674,-0.0699,-0.0718,-0.0768,-0.078,-0.0763,-0.0802,-0.0802,-0.0745,-0.0722,-0.0656,-0.0642,-0.0784,-0.0783,-0.0782,-0.0707,0,-0.0452,-0.044,-0.0476,-0.0454,-0.0451,-0.0497,-0.0494,-0.0512,-0.0535,-0.0532,-0.059,-0.0596,-0.067,-0.068,-0.0707,-0.075,-0.0745,-0.0779,-0.0745,-0.0743,-0.0662,-0.0632,-0.0572,-0.0494,-0.07,-0.0699,-0.0699,0,-0.0393,-0.04,-0.0371,-0.0389,-0.0388,-0.0378,-0.0383,-0.0384,-0.0409,-0.0423,-0.0449,-0.0489,-0.0525,-0.0584,-0.0624,-0.0638,-0.067,-0.0701,-0.0699,-0.0633,-0.0664,-0.0525,-0.0474,-0.0639,-0.0688,-0.0689,-0.069,0,-0.0319,-0.0323,-0.0299,-0.0305,-0.0328,-0.0315,-0.032,-0.0341,-0.0322,-0.0343,-0.0319,-0.0382,-0.0378,-0.0445,-0.0524,-0.0567,-0.0542,-0.0612,-0.0571,-0.0566,-0.0503,-0.0493,-0.0579,-0.061,-0.061,-0.0611,-0.0611,0,-0.0258,-0.0239,-0.0259,-0.0246,-0.0201,-0.0242,-0.0193,-0.0212,-0.0207,-0.015,-0.0245,-0.0197,-0.034,-0.0355,-0.0457,-0.0467,-0.0482,-0.0532,-0.0534,-0.0494,-0.0486,-0.0617,-0.0719,-0.0608,-0.0608,-0.0609,-0.061,0,-0.0188,-0.0203,-0.0173,-0.0176,-0.0166,-0.0131,-0.0102,-0.0064,-0.0074,0.0002,0.001,-0.0032,-0.0041,-0.0165,-0.0247,-0.0336,-0.0444,-0.0388,-0.0317,-0.0311,-0.0442,-0.0543,-0.057,-0.063,-0.0331,-0.0329,-0.0327,0,-0.0154,-0.0131,-0.0107,-0.0068,-0.0064,-0.002,0.0022,0.0012,0.0063,0.0125,0.0186,0.0192,0.0236,0.0144,-0.0009,-0.0121,-0.0319,-0.0166,-0.0252,-0.0407,-0.0523,-0.061,-0.0668,-0.0163,-0.016,-0.0158,-0.0156,0,-0.0084,-0.0073,-0.0049,0.0027,0.0084,0.0142,0.0202,0.0266,0.0291,0.0381,0.0498,0.0541,0.0471,0.0413,0.0247,0.0121,-0.0262,-0.0116,-0.0305,-0.0401,-0.0472,-0.0544,-0.0255,-0.0134,-0.0136,-0.0137,-0.0139,-0.014,-0.0021,0.0014,0.0059,0.0133,0.0202,0.0305,0.0383,0.0479,0.0613,0.0791,0.0788,0.0959,0.0768,0.057,0.036,-0.0011,-0.0064,-0.0146,-0.0252,-0.0324,-0.0394,-0.0032,0.0096,0.0095,0.0095,0.0094,0.0093,0,0.0071,0.0101,0.0166,0.0259,0.0354,0.0368,0.0508,0.0616,0.0822,0.1051,0.1203,0.1296,0.1048,0.0693,0.0204,-0.0094,-0.0267,-0.0303,-0.0457,-0.051,-0.0199,-0.0207,-0.0105,-0.0105,-0.0105,-0.0104,-0.0104,-0.0104,0.0127,0.0204,0.0225,0.0383,0.0451,0.0597,0.069,0.0876,0.1072,0.142,0.164,0.1762,0.1474,0.0487,-0.0221,-0.0402,-0.0676,-0.0669,-0.0845,-0.0697,-0.0694,-0.0691,-0.0726,-0.0733,-0.0734,-0.1111,-0.1115,-0.1118]}],[{"header":{"parameterUnit":"m.s-1","parameterCategory":2,"la1":30.2991,"la2":30.254,"lo1":-89.0895,"lo2":-89.0444,"dy":0.0017,"dx":0.0017,"nx":28,"ny":28,"refTime":"2023-11-04T21:00:00:Z","depth":"2","parameterNumber":2,"parameterNumberName":"U-component_of_CURRENTS"},"data":[0,0,0,0,0,0,0,0,0,0,0,0,0,0,0,0,0,0,0,0,0,0,0,0,0,0,0,0,0,0,0,0,0,0,0,0,0,0,0,0,0,0,0,0,0,0,0,0,0,0,0,0,0,0,0,0,0,0,0.2213,0.2213,0,0.2218,0.2218,0.2218,0.2251,0.2252,0.2253,0.2254,0.224,0.2239,0.2238,0,0,0,0,0,0,0,0,0,0,0,0,0,0.2165,0.2166,0.2213,0.2213,0.2213,0.2218,0.2218,0.2218,0.2251,0.2252,0.2253,0.2254,0.2241,0.2239,0.2238,0,0,0,0,0,0,0,0,0,0,0,0,0,0.2178,0.2166,0.2213,0.2231,0.2233,0.2218,0.2218,0.2218,0.2251,0.2252,0.2254,0.2255,0.2241,0.2239,0.2237,0.2199,0,0,0.2232,0.2231,0,0,0,0,0,0,0,0,0.2178,0.218,0.2229,0.223,0.2232,0.2236,0.2196,0.2211,0.2251,0.2243,0.2254,0.2256,0.2237,0.2235,0.2232,0.2198,0.2197,0.2232,0.2231,0.223,0.2229,0,0,0,0,0,0,0,0.2177,0.218,0.2214,0.2229,0.2231,0.2216,0.222,0.2199,0.2231,0.2244,0.2247,0.2248,0.2238,0.2234,0.2232,0.2197,0.2232,0.223,0.2229,0.2228,0.2271,0.2273,0,0,0,0,0,0,0.218,0.2179,0.2214,0.2214,0.2209,0.2216,0.2221,0.2233,0.2232,0.2233,0.2247,0.225,0.2236,0.2234,0.2232,0.2269,0.223,0.2228,0.2227,0.2269,0.2272,0.2274,0,0,0,0,0,0,0.218,0.2184,0.2214,0.2197,0.22,0.2216,0.2229,0.2232,0.2242,0.2235,0.2236,0.2256,0.2237,0.2234,0.2265,0.2266,0.2227,0.2226,0.2266,0.227,0.2273,0.229,0,0,0,0,0,0,0.2178,0.2184,0.2192,0.2198,0.2201,0.2223,0.2228,0.2231,0.2241,0.2245,0.2242,0.2242,0.2238,0.2268,0.2263,0.2262,0.2224,0.2264,0.2268,0.2272,0.2287,0.2294,0.23,0,0,0,0,0,0.2177,0.2176,0.2192,0.2196,0.2213,0.2223,0.2224,0.2238,0.224,0.225,0.2274,0.2242,0.2291,0.2268,0.2262,0.2261,0.2262,0.2267,0.2272,0.2284,0.2292,0.23,0,0,0,0,0,0,0.2161,0.218,0.2198,0.2205,0.2225,0.223,0.2239,0.224,0.2261,0.228,0.2264,0.2266,0.2304,0.2286,0.2261,0.2294,0.2272,0.2276,0.2284,0.2292,0.2298,0.235,0.2223,0,0,0,0,0,0.2162,0.2165,0.2191,0.2198,0.2216,0.2228,0.2232,0.2251,0.2269,0.228,0.2278,0.2293,0.2314,0.2308,0.2331,0.2323,0.2353,0.2326,0.2332,0.2337,0.2381,0.2453,0.247,0.2291,0.2291,0.2291,0,0,0.215,0.2166,0.2165,0.2194,0.2215,0.2238,0.2235,0.2262,0.2305,0.2273,0.2325,0.2322,0.2328,0.2354,0.2363,0.2334,0.2397,0.2344,0.2347,0.239,0.246,0.2478,0.2493,0.2294,0.2294,0.2293,0,0,0.2142,0.2161,0.2173,0.2189,0.2231,0.2249,0.2259,0.2287,0.2335,0.237,0.2381,0.2395,0.239,0.241,0.2414,0.2466,0.2449,0.2451,0.2492,0.256,0.2576,0.259,0.2612,0.2628,0.2428,0.2428,0.2428,0,0.2138,0.2159,0.2177,0.2199,0.2226,0.2256,0.2294,0.2337,0.2372,0.2414,0.2403,0.2436,0.243,0.2469,0.25,0.2478,0.2505,0.2448,0.2568,0.2583,0.2597,0.2617,0.2634,0.243,0.243,0.2429,0.2429,0,0.2142,0.2164,0.2175,0.2221,0.2254,0.2286,0.236,0.241,0.245,0.2472,0.2541,0.2542,0.2556,0.2541,0.2535,0.2614,0.2596,0.2582,0.2542,0.2616,0.2632,0.2649,0.2432,0.2431,0.2431,0.243,0,0,0.2123,0.2173,0.2176,0.221,0.2278,0.2304,0.2406,0.2494,0.2564,0.2583,0.2654,0.2675,0.2658,0.267,0.2645,0.2691,0.2787,0.2679,0.2682,0.2691,0.2917,0.2819,0.2828,0.2791,0.2796,0.2799,0.2873,0,0.2135,0.2186,0.2211,0.2263,0.2309,0.2374,0.2462,0.2545,0.2623,0.2695,0.2715,0.2774,0.2713,0.2728,0.2759,0.281,0.2844,0.2768,0.2857,0.286,0.2755,0.285,0.2617,0.2659,0.2891,0.2894,0.2896,0,0.2133,0.218,0.2239,0.2326,0.2354,0.2388,0.2543,0.2621,0.274,0.2798,0.2834,0.2869,0.2934,0.2887,0.2979,0.2934,0.2945,0.2962,0.2964,0.2893,0.2797,0.2634,0.2683,0.2925,0.2923,0.2921,0.2919,0,0.2123,0.2193,0.2247,0.2265,0.2366,0.2429,0.2503,0.2643,0.2734,0.2875,0.293,0.2999,0.304,0.3096,0.3113,0.3078,0.3214,0.3159,0.3068,0.3058,0.2894,0.2864,0.3252,0.3252,0.3251,0.3251,0.3251,0,0.211,0.215,0.2241,0.2256,0.2352,0.2431,0.2551,0.2644,0.2775,0.2843,0.2965,0.3026,0.311,0.3178,0.3182,0.3176,0.3262,0.3121,0.3097,0.2887,0.2857,0.3121,0.3105,0.3254,0.3253,0.3253,0.3252,0,0.2063,0.2116,0.2173,0.2286,0.2334,0.2398,0.2554,0.2628,0.2774,0.2874,0.2929,0.3076,0.317,0.3226,0.3318,0.3246,0.3277,0.3245,0.2971,0.2914,0.3053,0.3038,0.3176,0.3174,0.3172,0.317,0.3169,0,0.2058,0.2066,0.2171,0.221,0.2254,0.2371,0.2449,0.2605,0.2685,0.2873,0.2903,0.3063,0.3102,0.3199,0.3179,0.3187,0.324,0.2952,0.2852,0.3097,0.3059,0.3046,0.3033,0.2622,0.2616,0.2612,0.2608,0,0.2023,0.203,0.2076,0.2165,0.2232,0.2314,0.2441,0.2483,0.2637,0.2722,0.2822,0.2886,0.2993,0.2904,0.2931,0.2899,0.2941,0.2855,0.3227,0.2671,0.2579,0.2539,0.2545,0.2566,0.257,0.2573,0.2576,0.2577,0.2008,0.2013,0.2054,0.2115,0.2201,0.2237,0.2249,0.2352,0.2416,0.2469,0.2603,0.2599,0.2671,0.2589,0.2533,0.2517,0.2706,0.2581,0.2594,0.2612,0.2529,0.2438,0.2381,0.2384,0.2387,0.2389,0.2391,0,0.1957,0.1973,0.2013,0.2067,0.2076,0.2167,0.2227,0.2179,0.217,0.2231,0.2268,0.2096,0.2055,0.2149,0.2055,0.2067,0.2039,0.1989,0.1928,0.1972,0.2011,0.1895,0.158,0.1578,0.1575,0.1572,0,0,0.1949,0.1949,0.1933,0.1922,0.1959,0.1942,0.1931,0.1875,0.1892,0.1788,0.177,0.1897,0.2042,0.1747,0.1746,0.1639,0.178,0.158,0.2237,0.2207,0.2241,0.237,0.2243,0,0,0,0,0]},{"header":{"parameterUnit":"m.s-1","parameterCategory":2,"la1":30.2991,"la2":30.254,"lo1":-89.0895,"lo2":-89.0444,"dy":0.0017,"dx":0.0017,"nx":28,"ny":28,"refTime":"2023-11-04T21:00:00:Z","depth":"2","parameterNumber":3,"parameterNumberName":"V-component_of_CURRENTS"},"data":[0,0,0,0,0,0,0,0,0,0,0,0,0,0,0,0,0,0,0,0,0,0,0,0,0,0,0,0,0,0,0,0,0,0,0,0,0,0,0,0,0,0,0,0,0,0,0,0,0,0,0,0,0,0,0,0,0,0,0.0142,0.0142,0,0.0113,0.0113,0.0113,0.0066,0.0066,0.0065,0.0064,0.0026,0.0026,0.0026,0,0,0,0,0,0,0,0,0,0,0,0,0,0.0165,0.0165,0.0142,0.0142,0.0141,0.0114,0.0113,0.0113,0.0067,0.0066,0.0065,0.0064,0.0026,0.0026,0.0026,0,0,0,0,0,0,0,0,0,0,0,0,0,0.0147,0.0165,0.0142,0.0116,0.0113,0.0114,0.0113,0.0112,0.0067,0.0066,0.0064,0.0063,0.0027,0.0026,0.0026,0.0047,0,0,0.0024,0.0024,0,0,0,0,0,0,0,0,0.0148,0.0146,0.012,0.0117,0.0115,0.0093,0.0107,0.009,0.0067,0.0084,0.0064,0.0063,0.0049,0.0047,0.0043,0.0045,0.0043,0.0024,0.0024,0.0024,0.0024,0,0,0,0,0,0,0,0.0149,0.0147,0.013,0.012,0.0116,0.0108,0.0104,0.0104,0.0073,0.0082,0.0079,0.0077,0.0047,0.0044,0.0042,0.0043,0.0024,0.0024,0.0024,0.0024,0.0009,0.0009,0,0,0,0,0,0,0.0155,0.0148,0.0131,0.0129,0.013,0.0109,0.0104,0.0101,0.0073,0.0068,0.0078,0.0075,0.0045,0.0042,0.004,0.006,0.0024,0.0024,0.0023,0.0009,0.0009,0.0009,0,0,0,0,0,0,0.0156,0.0154,0.0132,0.0139,0.0135,0.011,0.0106,0.0101,0.0094,0.007,0.0064,0.0077,0.0044,0.0041,0.0029,0.0058,0.0023,0.0023,0.0009,0.0009,0.0009,0.0102,0,0,0,0,0,0,0.0157,0.0154,0.0155,0.0139,0.0135,0.0133,0.0107,0.0101,0.0096,0.0091,0.0067,0.0063,0.0043,0.003,0.0029,0.0057,0.0023,0.001,0.0009,0.0009,0.0099,0.0105,0.011,0,0,0,0,0,0.0158,0.0168,0.0155,0.0153,0.0137,0.0134,0.0131,0.0108,0.0097,0.0098,0.0074,0.0063,0.0027,0.003,0.0029,0.0058,0.001,0.0009,0.0009,0.0097,0.0104,0.011,0,0,0,0,0,0,0.0177,0.0164,0.015,0.0154,0.0143,0.0126,0.0125,0.0115,0.0099,0.0087,0.0067,0.0061,0.0057,0.0039,0.0042,0.0046,0.0015,0.0015,0.0082,0.0089,0.0094,0.0089,0.0022,0,0,0,0,0,0.0183,0.0188,0.0169,0.0174,0.0166,0.0147,0.0144,0.0126,0.0111,0.0102,0.0091,0.0069,0.0057,0.0057,0.0036,0.0052,0.0021,0.0063,0.0069,0.0074,0.0065,0.0037,0.004,0.0008,0.0008,0.0008,0,0,0.0195,0.0186,0.0191,0.0179,0.0165,0.0171,0.0142,0.0133,0.0137,0.0102,0.0106,0.0087,0.006,0.0066,0.0064,0.0057,0.0071,0.0074,0.0079,0.0066,0.0037,0.004,0.0043,0.0008,0.0008,0.0008,0,0,0.022,0.0208,0.0216,0.0213,0.0193,0.0185,0.0186,0.0169,0.0154,0.0156,0.0128,0.0118,0.0113,0.0099,0.0092,0.0114,0.0093,0.0116,0.0157,0.0132,0.0134,0.0136,0.0126,0.0126,0.0131,0.0131,0.0131,0,0.023,0.024,0.0219,0.0225,0.0231,0.0197,0.0211,0.0197,0.0182,0.0187,0.016,0.0148,0.0125,0.0138,0.014,0.013,0.0115,0.0145,0.0141,0.0142,0.0143,0.0131,0.013,0.0135,0.0135,0.0134,0.0134,0,0.0261,0.0269,0.0274,0.0274,0.0278,0.0284,0.0264,0.0268,0.0254,0.0248,0.0244,0.0202,0.0199,0.0196,0.0176,0.0183,0.0172,0.0148,0.0133,0.0152,0.0138,0.0135,0.0142,0.014,0.0139,0.0138,0,0,0.0285,0.0293,0.0297,0.0316,0.0305,0.0321,0.0326,0.0337,0.0363,0.0326,0.0349,0.0315,0.0293,0.0278,0.0253,0.0231,0.0228,0.02,0.0197,0.0204,0.0187,0.0152,0.0145,0.0212,0.0212,0.0211,0.0186,0,0.0312,0.0346,0.0341,0.039,0.0409,0.0398,0.042,0.0425,0.0419,0.0432,0.0375,0.0371,0.0324,0.0322,0.0294,0.024,0.0221,0.0237,0.0152,0.015,0.0128,0.014,0.0149,0.0123,0.0183,0.0182,0.0182,0,0.0343,0.0366,0.0411,0.0462,0.047,0.0495,0.0545,0.0556,0.0555,0.0553,0.0534,0.0476,0.0436,0.0376,0.0298,0.0316,0.0255,0.0205,0.0202,0.0128,0.0108,0.0105,0.0115,0.0177,0.0177,0.0178,0.0178,0,0.0383,0.0424,0.0469,0.0484,0.0526,0.0554,0.0577,0.0597,0.0629,0.0616,0.0636,0.0568,0.0538,0.044,0.0323,0.0314,0.0228,0.0204,0.0115,0.0113,0.0078,0.0073,0.0135,0.0135,0.0135,0.0135,0.0135,0,0.0424,0.0465,0.0495,0.0526,0.0597,0.0604,0.0677,0.0697,0.0726,0.0786,0.0695,0.0711,0.0549,0.0471,0.0355,0.0233,0.0254,0.0116,0.0098,0.0112,0.011,0.0113,0.0111,0.0134,0.0134,0.0134,0.0135,0,0.0464,0.0477,0.0543,0.0597,0.0614,0.0669,0.0742,0.0802,0.082,0.0889,0.0879,0.0823,0.0723,0.0557,0.0405,0.0289,0.0159,0.0108,0.0139,0.0123,0.0056,0.0059,0.0008,0.0007,0.0005,0.0004,0.0003,0,0.0491,0.0525,0.0596,0.0643,0.0668,0.0741,0.0795,0.0842,0.0907,0.097,0.1005,0.0918,0.0879,0.0636,0.0396,0.0179,0.0157,0.0044,0.0007,0.0053,0.004,0.0045,0.005,0.0013,0.0012,0.0012,0.0011,0,0.0555,0.0575,0.0625,0.0707,0.0774,0.0854,0.0928,0.1003,0.1074,0.113,0.1189,0.1152,0.092,0.068,0.0362,0.0216,0.0071,0.0022,0.0066,0.0036,0.0052,0.0042,0.0047,0.0005,0.0006,0.0006,0.0007,0.0007,0.06,0.0644,0.0703,0.0785,0.086,0.0955,0.103,0.1124,0.123,0.131,0.1296,0.1238,0.0992,0.0555,0.0306,0.0026,0.0041,-0.0061,-0.0057,-0.0053,-0.0055,-0.0044,-0.0108,-0.0108,-0.0108,-0.0108,-0.0108,0,0.066,0.0698,0.078,0.0874,0.0965,0.0988,0.1111,0.1185,0.1313,0.1357,0.1378,0.1125,0.0865,0.0579,0.016,-0.0075,-0.0084,-0.015,-0.0106,-0.0099,-0.0093,-0.0096,-0.016,-0.0161,-0.0161,-0.0162,0,0,0.0685,0.076,0.0793,0.0938,0.1011,0.1119,0.1191,0.1288,0.1333,0.1363,0.131,0.1237,0.0916,0.0607,0.0296,0.0062,0.0034,0.0015,0.008,0.0175,0.0183,-0.0022,-0.0017,0,0,0,0,0]}],[{"header":{"parameterUnit":"m.s-1","parameterCategory":2,"la1":30.2991,"la2":30.254,"lo1":-89.0895,"lo2":-89.0444,"dy":0.0017,"dx":0.0017,"nx":28,"ny":28,"refTime":"2023-11-04T21:00:00:Z","depth":"4","parameterNumber":2,"parameterNumberName":"U-component_of_CURRENTS"},"data":[0,0,0,0,0,0,0,0,0,0,0,0,0,0,0,0,0,0,0,0,0,0,0,0,0,0,0,0,0,0,0,0,0,0,0,0,0,0,0,0,0,0,0,0,0,0,0,0,0,0,0,0,0,0,0,0,0,0,0.1103,0.1104,0,0.1167,0.1167,0.1167,0.1219,0.122,0.1221,0.1222,0.1292,0.1293,0.1293,0,0,0,0,0,0,0,0,0,0,0,0,0,0.1005,0.1006,0.1103,0.1104,0.1106,0.1167,0.1167,0.1168,0.1219,0.122,0.1221,0.1222,0.1291,0.1292,0.1293,0,0,0,0,0,0,0,0,0,0,0,0,0,0.105,0.1007,0.1103,0.1143,0.1148,0.1167,0.1167,0.1168,0.1218,0.122,0.1222,0.1223,0.1291,0.1292,0.1294,0.1269,0,0,0.1297,0.1298,0,0,0,0,0,0,0,0,0.1048,0.1053,0.1136,0.114,0.1146,0.1192,0.1159,0.1204,0.1218,0.1185,0.1222,0.1224,0.1262,0.1265,0.1265,0.1272,0.1275,0.1298,0.1298,0.1299,0.1299,0,0,0,0,0,0,0,0.1045,0.1051,0.1122,0.1137,0.1143,0.1152,0.1159,0.1167,0.1209,0.1188,0.1194,0.121,0.1264,0.1264,0.1267,0.1276,0.1298,0.1299,0.1299,0.13,0.1376,0.1378,0,0,0,0,0,0,0.1048,0.1048,0.112,0.1125,0.1107,0.1153,0.1161,0.117,0.1209,0.1218,0.1208,0.1212,0.1261,0.1266,0.127,0.1327,0.1299,0.13,0.1301,0.1375,0.1377,0.1378,0,0,0,0,0,0,0.1046,0.1054,0.1118,0.1093,0.1103,0.1153,0.1163,0.1171,0.1197,0.1225,0.1234,0.123,0.1262,0.1268,0.1305,0.1327,0.1301,0.1302,0.1374,0.1376,0.1377,0.1387,0,0,0,0,0,0,0.1042,0.1052,0.106,0.1093,0.1104,0.1143,0.1163,0.1171,0.1206,0.1212,0.1246,0.1253,0.1264,0.1303,0.1306,0.1328,0.1303,0.1372,0.1375,0.1377,0.1385,0.1389,0.1392,0,0,0,0,0,0.1039,0.105,0.106,0.107,0.1114,0.1144,0.1149,0.1187,0.1206,0.1215,0.1248,0.1253,0.1321,0.1305,0.1308,0.1331,0.1371,0.1374,0.1377,0.1384,0.1388,0.1392,0,0,0,0,0,0,0.1016,0.1058,0.1069,0.1094,0.1122,0.1155,0.1178,0.1195,0.1224,0.1246,0.1261,0.1269,0.1315,0.132,0.1301,0.1363,0.135,0.1354,0.1354,0.1359,0.1362,0.1392,0.1304,0,0,0,0,0,0.1013,0.1034,0.1068,0.1091,0.1109,0.1142,0.1161,0.1189,0.1222,0.1238,0.1263,0.1296,0.1322,0.1339,0.1364,0.1385,0.1405,0.1407,0.1411,0.1414,0.1442,0.1487,0.1497,0.1387,0.1387,0.1387,0,0,0.1009,0.1039,0.105,0.1088,0.1117,0.1138,0.1157,0.1202,0.1224,0.124,0.1284,0.1311,0.1333,0.1369,0.1389,0.1379,0.1451,0.1417,0.1419,0.1447,0.1491,0.1502,0.1511,0.1389,0.1389,0.1389,0,0,0.1021,0.1044,0.1066,0.1088,0.1141,0.1157,0.1173,0.1218,0.1245,0.1283,0.1308,0.1355,0.1383,0.1411,0.1425,0.1463,0.1472,0.1468,0.1505,0.1547,0.1556,0.1565,0.158,0.159,0.1465,0.1465,0.1465,0,0.1019,0.1045,0.1076,0.1105,0.1125,0.1165,0.1186,0.1214,0.1266,0.1295,0.1307,0.1391,0.1407,0.1457,0.1479,0.1472,0.1491,0.148,0.1551,0.1561,0.1569,0.1583,0.1594,0.1466,0.1466,0.1466,0.1466,0,0.1038,0.1065,0.1085,0.1125,0.1146,0.1177,0.1216,0.1251,0.1289,0.1323,0.1399,0.1434,0.149,0.1495,0.1501,0.1571,0.1561,0.1551,0.1537,0.1581,0.1592,0.1603,0.1467,0.1467,0.1466,0.1466,0,0,0.1022,0.1082,0.1093,0.1109,0.1159,0.1179,0.1223,0.127,0.1314,0.1376,0.144,0.1498,0.1545,0.1567,0.1584,0.1623,0.1686,0.1621,0.1622,0.1631,0.1769,0.1664,0.1666,0.1689,0.1691,0.1694,0.1743,0,0.1028,0.1068,0.11,0.1134,0.115,0.1196,0.123,0.1286,0.1338,0.1411,0.1482,0.1555,0.1561,0.1607,0.1648,0.1691,0.1722,0.1674,0.1732,0.1734,0.1631,0.1678,0.1702,0.1751,0.1754,0.1755,0.1757,0,0.1031,0.1056,0.1087,0.1137,0.1152,0.1181,0.1246,0.1288,0.1392,0.1447,0.154,0.1603,0.1701,0.1693,0.1792,0.1764,0.178,0.1797,0.1799,0.1714,0.1651,0.1706,0.1777,0.1776,0.1774,0.1773,0.1771,0,0.099,0.1046,0.1067,0.1082,0.1145,0.118,0.1221,0.1307,0.137,0.1491,0.1562,0.1668,0.1752,0.1802,0.1863,0.1837,0.1958,0.1912,0.1827,0.1818,0.1892,0.1882,0.1979,0.1979,0.1979,0.1978,0.1978,0,0.0965,0.0987,0.1056,0.1068,0.1111,0.1165,0.1234,0.1295,0.1414,0.1494,0.1595,0.1672,0.1792,0.1875,0.1895,0.1907,0.1984,0.1855,0.1836,0.189,0.188,0.1898,0.1888,0.198,0.198,0.198,0.1979,0,0.0916,0.096,0.0993,0.1065,0.1096,0.1131,0.1249,0.1298,0.1415,0.1526,0.1583,0.1723,0.1816,0.1907,0.1995,0.1941,0.1962,0.1941,0.2004,0.1984,0.1777,0.1767,0.1833,0.183,0.1827,0.1825,0.1823,0,0.0885,0.0898,0.0988,0.1014,0.1053,0.1121,0.1168,0.1292,0.1343,0.1532,0.157,0.173,0.1805,0.1843,0.1928,0.1963,0.1939,0.192,0.1842,0.1794,0.1769,0.1763,0.1756,0.1819,0.1819,0.1818,0.1817,0,0.0818,0.0871,0.0906,0.097,0.1021,0.1069,0.1143,0.1187,0.1326,0.1454,0.1537,0.161,0.171,0.1774,0.1835,0.1845,0.1917,0.1892,0.1896,0.1822,0.1778,0.1754,0.1751,0.1808,0.181,0.1811,0.1811,0,0.0779,0.0792,0.0857,0.0907,0.0967,0.099,0.1045,0.1106,0.1187,0.1387,0.1408,0.1562,0.1691,0.1713,0.176,0.1784,0.1739,0.1656,0.1671,0.1682,0.1613,0.1534,0.1491,0,0,0,0,0,0.0735,0.0742,0.078,0.0825,0.0885,0.0919,0.1011,0.1067,0.1206,0.123,0.1324,0.1409,0.1501,0.1566,0.1561,0.1686,0.1742,0.1669,0.1652,0.1759,0.1769,0.1704,0,0,0,0,0,0,0.0702,0.0732,0.0752,0.0749,0.0764,0.0812,0.0866,0.0961,0.0973,0.1128,0.1183,0.1304,0.141,0.1495,0.1528,0.1552,0.1507,0.1766,0.1761,0.1753,0.1763,0.1771,0.1707,0,0,0,0,0]},{"header":{"parameterUnit":"m.s-1","parameterCategory":2,"la1":30.2991,"la2":30.254,"lo1":-89.0895,"lo2":-89.0444,"dy":0.0017,"dx":0.0017,"nx":28,"ny":28,"refTime":"2023-11-04T21:00:00:Z","depth":"4","parameterNumber":3,"parameterNumberName":"V-component_of_CURRENTS"},"data":[0,0,0,0,0,0,0,0,0,0,0,0,0,0,0,0,0,0,0,0,0,0,0,0,0,0,0,0,0,0,0,0,0,0,0,0,0,0,0,0,0,0,0,0,0,0,0,0,0,0,0,0,0,0,0,0,0,0,0.0248,0.0248,0,0.0225,0.0225,0.0225,0.0206,0.0206,0.0205,0.0205,0.0184,0.0184,0.0183,0,0,0,0,0,0,0,0,0,0,0,0,0,0.025,0.025,0.0248,0.0248,0.0248,0.0225,0.0225,0.0225,0.0206,0.0206,0.0205,0.0205,0.0184,0.0184,0.0183,0,0,0,0,0,0,0,0,0,0,0,0,0,0.0241,0.025,0.0248,0.0235,0.0234,0.0225,0.0225,0.0225,0.0206,0.0206,0.0205,0.0205,0.0184,0.0184,0.0183,0.0187,0,0,0.0182,0.0181,0,0,0,0,0,0,0,0,0.0241,0.0241,0.0237,0.0236,0.0234,0.0218,0.0218,0.0212,0.0206,0.0217,0.0205,0.0205,0.0195,0.0194,0.0191,0.0186,0.0186,0.0182,0.0181,0.0181,0.0181,0,0,0,0,0,0,0,0.0242,0.0241,0.024,0.0237,0.0235,0.0221,0.022,0.0216,0.0209,0.0216,0.0214,0.0211,0.0195,0.0192,0.019,0.0185,0.0182,0.0181,0.0181,0.0181,0.0191,0.0192,0,0,0,0,0,0,0.0246,0.0242,0.024,0.0239,0.0236,0.0222,0.022,0.0224,0.0209,0.0206,0.0212,0.021,0.0193,0.0191,0.019,0.0217,0.0181,0.0181,0.018,0.0191,0.0192,0.0192,0,0,0,0,0,0,0.0246,0.0246,0.0241,0.0239,0.0237,0.0222,0.0226,0.0223,0.0224,0.0205,0.0203,0.0215,0.0192,0.019,0.0199,0.0215,0.018,0.018,0.019,0.0191,0.0192,0.0256,0,0,0,0,0,0,0.0246,0.0247,0.0255,0.024,0.0238,0.0241,0.0226,0.0223,0.0222,0.0221,0.0208,0.0205,0.0192,0.02,0.0198,0.0213,0.018,0.0189,0.0191,0.0192,0.0253,0.0259,0.0264,0,0,0,0,0,0.0247,0.0258,0.0256,0.0255,0.0249,0.0242,0.024,0.0227,0.0223,0.0226,0.0224,0.0206,0.0205,0.02,0.0198,0.0213,0.0189,0.019,0.0191,0.025,0.0257,0.0263,0,0,0,0,0,0,0.026,0.0256,0.0254,0.0263,0.0256,0.0238,0.0241,0.0234,0.0234,0.0233,0.0218,0.0216,0.0227,0.0211,0.0206,0.0218,0.0192,0.0193,0.0237,0.0244,0.0249,0.0245,0.0179,0,0,0,0,0,0.0268,0.0277,0.0267,0.0274,0.0273,0.0259,0.0257,0.0248,0.0242,0.0241,0.0236,0.0229,0.023,0.0231,0.0225,0.0236,0.0202,0.0242,0.0247,0.0252,0.0247,0.0215,0.0217,0.0196,0.0196,0.0196,0,0,0.0275,0.0274,0.0279,0.0278,0.0271,0.0277,0.0257,0.0254,0.0264,0.024,0.0257,0.0248,0.0237,0.025,0.0253,0.024,0.024,0.0254,0.0258,0.025,0.0217,0.0219,0.022,0.0197,0.0197,0.0197,0,0,0.0288,0.0293,0.0302,0.0302,0.0296,0.029,0.0293,0.0283,0.0285,0.0297,0.0285,0.0285,0.0288,0.0282,0.0281,0.031,0.027,0.0311,0.0338,0.0308,0.0309,0.031,0.0271,0.0268,0.0315,0.0315,0.0315,0,0.0296,0.031,0.0303,0.0311,0.032,0.0301,0.0315,0.0315,0.0311,0.0321,0.0309,0.0313,0.0301,0.0318,0.0328,0.0322,0.0295,0.0318,0.0315,0.0315,0.0314,0.0274,0.027,0.0318,0.0318,0.0317,0.0317,0,0.0314,0.0328,0.0333,0.0345,0.0352,0.036,0.036,0.0371,0.0372,0.037,0.0384,0.0367,0.0368,0.0367,0.0358,0.0359,0.0337,0.0326,0.0299,0.032,0.0277,0.0271,0.0323,0.0322,0.0321,0.032,0,0,0.0323,0.0344,0.0347,0.0366,0.0374,0.0384,0.0408,0.0426,0.0447,0.0436,0.0459,0.0452,0.0435,0.043,0.0416,0.0389,0.0364,0.0361,0.0358,0.0323,0.0291,0.026,0.025,0.0356,0.0355,0.0354,0.0263,0,0.034,0.0374,0.0379,0.0416,0.0437,0.0442,0.0471,0.0485,0.0491,0.0507,0.0485,0.0496,0.0463,0.0468,0.0436,0.0383,0.0351,0.0389,0.0274,0.027,0.0241,0.0243,0.0352,0.0258,0.0256,0.0255,0.0255,0,0.0355,0.0381,0.0424,0.0469,0.0479,0.0502,0.055,0.057,0.0584,0.059,0.0584,0.0562,0.0533,0.05,0.0404,0.0431,0.0365,0.0314,0.0309,0.0251,0.0228,0.0231,0.0243,0.0244,0.0245,0.0246,0.0246,0,0.0372,0.0412,0.0455,0.0469,0.0514,0.0545,0.0571,0.0598,0.063,0.0639,0.0653,0.0609,0.0589,0.0503,0.0394,0.04,0.0274,0.0269,0.0176,0.0173,0.02,0.02,0.0196,0.0196,0.0196,0.0196,0.0197,0,0.039,0.0423,0.047,0.0495,0.0558,0.0576,0.0639,0.0659,0.0692,0.0724,0.0694,0.0693,0.0587,0.0506,0.0404,0.0264,0.0277,0.0172,0.0146,0.023,0.0234,0.0196,0.0197,0.0193,0.0194,0.0194,0.0195,0,0.0398,0.0426,0.0479,0.054,0.0567,0.0612,0.069,0.0731,0.0753,0.0791,0.0797,0.0749,0.0635,0.0515,0.0364,0.0276,0.015,0.0099,0.0188,0.017,0.0065,0.0071,-0.0014,-0.0016,-0.0018,-0.0019,-0.002,0,0.0407,0.0435,0.0513,0.0555,0.0586,0.0659,0.0713,0.0763,0.0798,0.0817,0.0827,0.0745,0.0691,0.0455,0.0323,0.0121,0.0095,0.0029,0.0052,0.0059,0.0043,0.0051,0.0059,-0.0023,-0.0023,-0.0024,-0.0024,0,0.0425,0.0451,0.0496,0.0581,0.0648,0.0721,0.079,0.0823,0.0868,0.0887,0.0848,0.0743,0.061,0.0439,0.028,0.0139,0.0072,0.0012,0.0014,0.0036,0.0048,0.0035,0.0045,-0.003,-0.0029,-0.0028,-0.0028,0,0.0439,0.0471,0.0531,0.0604,0.0687,0.0756,0.0797,0.0833,0.0872,0.0882,0.0859,0.0737,0.0666,0.0446,0.0299,0.0155,0.0121,0.0081,0.0079,0.0084,0.0139,0.0171,0.0103,0,0,0,0,0,0.0448,0.0485,0.0553,0.0633,0.0711,0.0759,0.0837,0.0868,0.0904,0.0879,0.0873,0.075,0.0539,0.0449,0.0297,0.0261,0.0091,0.0077,0.0043,-0.006,-0.0054,-0.0008,0,0,0,0,0,0,0.0454,0.0515,0.0547,0.064,0.0694,0.0785,0.0836,0.0862,0.0844,0.0854,0.0741,0.0701,0.0491,0.0619,0.0289,0.0247,0.0202,-0.0017,-0.002,-0.0064,-0.0058,-0.0053,-0.0004,0,0,0,0,0]}]]